THOR ABLESTAR DEB, 659

Orbit data source: Space-Track

THOR ABLESTAR DEB, 659 is space debris in LEO originally from a launch on Thu, 29 Jun 1961 UTC launched from the Air Force Eastern Test Range (AFETR). Debris objects in space refer to the collection of defunct objects orbiting the Earth. Examples of debris include non-operational satellites, rocket bodies, and fragments generated from explosions, collisions, or faulty payload assembly.

Loading next visibility...
Identifier
659, 1961-015HL
Orbit
LEO
Country
Flag of USUS
Related business
Manufacturer
Unknown
Mission
Spacecraft
Bus & Motor
Unknown
Mass
Unknown
Launch date (UTC)
1961-06-29 (64 years ago)
Launch vehicle
Unknown
Launch site
Air Force Eastern Test Range (AFETR)
Object type
Payload
Rocket body
Debris
Shape & HBR
Unknown
Radar Cross Section
Small (<0.1 m²)

Expand to show TLE details & history
Last TLE update: 4 hours ago

TLE from 4 hours ago
0 THOR ABLESTAR DEB
1 00659U 61015HL  25243.57769527 -.00000021  00000-0  82222-4 0  9991
2 00659  67.1624 303.4915 0579127 109.2321   6.2907 12.66617618954345
Epoch: 2025-08-31T13:51Z
TLE epoch observation values (Epoch: 2025-08-31T13:51:52.871Z)
Latitude
55.82463°
Longitude
-102.57042°
Altitude
957.003 km
Speed
7.588 km/s
True Right ascension
05h 41m 34s
True Declination
55° 40' 08"
Sunlit
Object was in daylight at epoch
Visualization orbit readout
Latitude
Unknown
Longitude
Unknown
Altitude
Unknown
Speed
Unknown
Apparent Right ascension
Unknown
Apparent Declination
Unknown
Sunlit
N/A
Visualization observer readout
Local Sidereal Time
09:57:14
Azimuth
Unknown
Elevation
Unknown
Doppler factor
Unknown
Orbital elements
Apogee altitude
1,844.31 km
Perigee altitude
944.077 km
Semi-major axis
7,772.33 km
Eccentricity
0.05791
Inclination
67.1624°
RAAN
303.4915°
Arg. of periapsis
109.2321°
True anomaly
7.07402°
Mean anomaly
6.2907°
Eccentric anomaly
6.67648°
Mean motion
3.1675 °/min
Orbital period
113.65 mins
BSTAR
0.000082222
Loading maneuver chart data...
Computing Atmospheric mass density...

Documentation

Showing up to 5 results
|